STARLINK-1849 (47137 NORAD) Tracking and Keplerian Element Data
This shows tracking and keplerian element data for the satellite.
Feedback or suggestion? Click here.
Element | Value |
Catalog | 47137 |
Name | STARLINK-1849 |
Epoch Orbit | 896 |
Epoch Day | 16.16667824 |
Epoch Year | 2021 |
RAAN | 97.3764 |
Inclination | 53.055 |
Eccentricity | 0.0001314 |
Argument of Perigee | 53.6259 |
Mean Anonmoly | 297.1441 |
Mean Motion | 15.62723883 |
Decay Rate | 0.0006081 |
L1 | 1 47137U 20088R 21016.16667824 .00060810 00000-0 66576-3 0 9998 |
L2 | 2 47137 53.0550 97.3764 0001314 53.6259 297.1441 15.62723883 8963 |
Live tracking and technical data element details for STARLINK-1849 (NORAD 47137). STARLINK-1849 can be tracked NOW for your location showing map with azimuth and elevation plus other details from your city location.
Track the satellite on the map from your city or location and see movement details for azimuth, elevation, latitude, longitude, range, height, and movement on the map or in text.
IsCatalogInMostPopularTable: catalog: 47137, numindb: 14
Update: records affected: 1
GetName: 47137 STARLINK-1849
Hit Count: updated at: Sun, 17 Jan 2021 08:34:27 GMT